Location: B?jaj?g
(11.7167°N, 92.6667°E)
Time: 12:33:30
(UTC+00:00)

Sich 1 Rocket - Pass Details

Date: 18 September 2020
Orbit: 617 x 652 km, 82.5° (Epoch: 21 October)

Event Time Altitude Azimuth Distance (km) Brightness Sun altitude
Rises 12:40:36 0° 181° (S) 2,890 7.0 -13.7°
Reaches altitude 10° 12:42:49 10° 180° (S) 1,989 6.1 -14.2°
Maximum altitude 12:47:13 79° 94° (E) 641 3.5 -15.3°
Drops below altitude 10° 12:51:40 10° 7° (N) 2,010 6.2 -16.4°
Sets 12:53:55 0° 6° (N) 2,924 7.0 -16.9°
